User: anonymous   Login
Location: Eckley
(40.9930°N, 75.8630°W)
Time: 04:16:19
(UTC-05:00)
Language:

Cosmos 2221 Rocket - Orbit

View from above orbital plane
View from above orbital plane
View from above satellite
View from above satellite

Ground track
Ground track

The orbit data is extracted from the following two-line orbital elements,

1 22237U 92080B   14327.97439715  .00000538  00000-0  71212-4 0  4995
2 22237 082.5131 268.4548 0020327 031.0460 013.9914 14.77971545185138
Epoch (UTC): 23 November 2014 23:23:07
Eccentricity: 0.0020327
inclination: 82.5131°
perigee height: 621 km
apogee height: 650 km
right ascension of ascending node: 268.4548°
argument of perigee: 31.0460°
revolutions per day: 14.77971545
mean anomaly at epoch: 13.9914°
orbit number at epoch: 18513

The dashed part of the orbit path shows where the satellite is in the earth's shadow,  

DLR